Regional Weather Roundup
Issued by NWS

Home | Current Version | Previous Version | Graphics & Text | Print | Product List | Glossary On
Versions: 1 2 3 4 5 6 7 8 9 10 11 12 13 14 15 16 17 18 19 20 21 22 23 24 25 26 27 28 29 30 31 32 33 34 35 36 37 38 39 40 41 42 43 44 45 46 47 48 49 50
000
ASUS45 KABQ 290101
RWRNM
NEW MEXICO REGIONAL WEATHER ROUNDUP
NATIONAL WEATHER SERVICE ALBUQUERQUE NM
700 PM MDT THU MAY 28 2015

NOTE: "FAIR" MEANS FEW OR NO CLOUDS BELOW 12,000 FEET AGL WITH NO
       SIGNIFICANT WEATHER OR OBSTRUCTIONS TO VISION.

      THIS PRODUCT IS RELEASED AS TWO VERSIONS.  ONE VERSION NEAR
      THE TOP OF THE HOUR CONTAINING PRELIMINARY DATA FROM ALBUQUERQUE
      AND OTHER STATIONS.  A FINAL VERSION WITH ADDITIONAL DATA IS
      ISSUED ABOUT 10 MINUTES AFTER THE HOUR.

NMZ501-503-504-510>518-290200-
NORTHWEST PLATEAU/NORTHCENTRAL MOUNTAINS

CITY           SKY/WX    TMP DP  RH WIND       PRES   REMARKS
FARMINGTON     SUNNY     75  27  17 NW20G26   30.02S
SANTA FE       SUNNY     77  15   9 NW18G26   30.02S
TAOS           MOSUNNY   70  21  16 NW18G28   30.09R
ANGEL FIRE     FAIR      63  26  25 W18G28    30.16R

$$
NMZ402-403-502-505>509-290200-
WESTCENTRAL MOUNTAINS/SOUTHWEST MOUNTAINS

CITY           SKY/WX    TMP DP  RH WIND       PRES   REMARKS
GALLUP         MOSUNNY   75  23  14 SW20      30.11R
GRANTS         SUNNY     76  16  10 NW14G20   30.11R
SILVER CITY      N/A     82  14   7 NW20      30.05R

$$
NMZ407-409-411-412-290200-
SOUTHERN DESERTS

CITY           SKY/WX    TMP DP  RH WIND       PRES   REMARKS
LORDSBURG      FAIR      88  18   7 W13G21    29.95F
DEMING         SUNNY     88  14   6 W17G26    29.94S
HOLLOMAN AFB   SUNNY     90  15   6 W9        29.87F
ALAMOGORDO     SUNNY     90  16   6 W10       29.89F
T OR C         SUNNY     88  17   7 CALM      29.90F

$$
NMZ519>523-290200-
CENTRAL VALLEYS/CENTRAL HIGHLANDS

CITY           SKY/WX    TMP DP  RH WIND       PRES   REMARKS
ALBUQUERQUE    MOSUNNY   84  14   7 W17       29.97S
DOUBLE EAGLE   MOSUNNY   81  19  10 W12       30.01R
MORIARTY ARPT  FAIR      78  13   8 W18G24    30.02S
CLINES CORNERS SUNNY     74  19  12 NW15G24   30.06F
BELEN          FAIR      84  10   6 W16       29.95S
SOCORRO        NOT AVBL

$$
NMZ524>526-539-540-290200-
SOUTHCENTRAL MOUNTAINS

CITY           SKY/WX    TMP DP  RH WIND       PRES   REMARKS
RUIDOSO        NOT AVBL

$$
NMZ527>531-290200-
NORTHEAST HIGHLANDS/NORTHEAST PLAINS

CITY           SKY/WX    TMP DP  RH WIND       PRES   REMARKS
LAS VEGAS      SUNNY     73  24  16 NW14      30.05R
RATON          MOSUNNY   70  41  34 E17       30.00R
CLAYTON        CLOUDY    61  54  77 SE13      29.98R

$$
NMZ532>537-290200-
EASTCENTRAL PLAINS

CITY           SKY/WX    TMP DP  RH WIND       PRES   REMARKS
TUCUMCARI      MOSUNNY   72  57  59 S21       29.89S
CANNON AFB     NOT AVBL
CLOVIS AIRPORT CLOUDY    61  55  82 S13         N/A

$$
NMZ028-029-538-290200-
SOUTHEAST PLAINS

CITY           SKY/WX    TMP DP  RH WIND       PRES   REMARKS
ROSWELL        CLOUDY    79  61  53 S15G24    29.85R
ARTESIA        PTSUNNY   82  57  42 SE16G22   29.85S
CARLSBAD       PTSUNNY   81  56  42 S16       29.83F
HOBBS          CLOUDY    64  59  82 NE20      29.96R


$$



USA.gov is the U.S. government's official web portal to all federal, state and local government web resources and services.